Regional Weather Roundup
Issued by NWS Kansas City/Pleasant Hill, MO

Home | Current Version | Previous Version | Text Only | Print | Product List | Glossary On
Versions: 1 2 3 4 5 6 7 8 9 10 11 12 13 14 15 16 17 18 19 20 21 22 23 24 25 26 27 28 29 30 31 32 33 34 35 36 37 38 39 40 41 42 43 44 45 46 47 48 49 50
213
ASUS43 KEAX 060010
RWREAX

WEATHER ROUNDUP FOR EASTERN KANSAS AND NORTHWEST MISSOURI
NATIONAL WEATHER SERVICE KANSAS CITY/PLEASANT HILL MO
600 PM CST MON DEC 05 2016

KSZ040-057-103>105-MOZ028-029-037-043-060100-
...KANSAS CITY METROPOLITAN AREA...

CITY           SKY/WX    TMP DP  RH WIND       PRES   REMARKS
K.C. INTL      CLEAR     42  31  64 SE8       29.74S
6HR MIN TEMP:  41; 6HR MAX TEMP:  52;

K.C. DOWNTOWN  CLEAR     47  35  63 SE8       29.75S
6HR MIN TEMP:  47; 6HR MAX TEMP:  53;

LEES SUMMIT    CLOUDY    43  32  65 SE6       29.76S
6HR MIN TEMP:  43; 6HR MAX TEMP:  51;

OLATHE - IXD   CLEAR     43  33  68 SE8       29.74S
6HR MIN TEMP:  43; 6HR MAX TEMP:  51;

OLATHE - OJC   CLEAR     41  33  73 SE10      29.74S WCI  35
6HR MIN TEMP:  41; 6HR MAX TEMP:  50;

LAWRENCE       CLEAR     37  33  85 SE10      29.72F WCI  30

$$

MOZ001>008-011>017-020>025-030>033-038>040-044>046-053-054-060100-
...NORTHERN AND CENTRAL MISSOURI...

CITY           SKY/WX    TMP DP  RH WIND       PRES   REMARKS
ST. JOSEPH     CLEAR     44  33  65 SE9       29.72F
6HR MIN TEMP:  41; 6HR MAX TEMP:  52;

MOSBY          CLEAR     45  32  61 SE5       29.76S
WHITEMAN AFB   PTCLDY    40  35  82 SE6       29.77R
6HR MIN TEMP:  40; 6HR MAX TEMP:  51;

CLINTON        CLOUDY    41  32  70 CALM      29.78S
SEDALIA        CLOUDY    39  34  82 E6        29.80S WCI  35
6HR MIN TEMP:  39; 6HR MAX TEMP:  52;

WARSAW         NOT AVBL
CHILLICOTHE      N/A     44  33  65 SE8       29.79S
6HR MIN TEMP:  44; 6HR MAX TEMP:  51;

KIRKSVILLE     CLOUDY    38  37  97 SE10      29.82F WCI  31
6HR MIN TEMP:  35; 6HR MAX TEMP:  40;


$$

MOZ041-047>049-056>058-063>065-088>090-097-060100-
...EASTERN AND SOUTHERN MISSOURI...

CITY           SKY/WX    TMP DP  RH WIND       PRES   REMARKS
ST. LOUIS INTL MOCLDY    41  34  76 E8        29.86F
6HR MIN TEMP:  41; 6HR MAX TEMP:  46;

SPIRIT OF STL  PTCLDY    37  35  92 E5        29.86S WCI  33
COLUMBIA       CLEAR     39  36  89 E10       29.80F WCI  32
JEFFERSON CITY PTCLDY    41  36  82 E6        29.81F
ROLLA          PTCLDY    40  35  83 E7        29.79S
OSAGE BEACH    PTCLDY    40  33  76 E5        29.79F
SPRINGFIELD    CLEAR     38  33  82 SE8       29.75S WCI  32
BRANSON        CLOUDY    41  36  81 SE9       29.76S
JOPLIN         CLEAR     41  37  86 VRB5      29.76R
WEST PLAINS    PTCLDY    40  36  86 E6        29.79F

$$

IAZ060-094-KSZ022-034>040-054-083-096-NEZ052-066-093-060100-
...KANSAS...SOUTHEAST NEBRASKA AND IOWA...

CITY           SKY/WX    TMP DP  RH WIND       PRES   REMARKS
TOPEKA         CLEAR     44  34  67 SE5       29.71S
6HR MIN TEMP:  44; 6HR MAX TEMP:  52;

MANHATTAN      CLEAR     40  34  79 CALM      29.68S
EMPORIA        CLEAR     40  35  83 SE8       29.70R WCI  34
CHANUTE        CLEAR     37  36  96 E3        29.73R
WICHITA        CLEAR     44  35  70 SE3       29.67R
OMAHA          MOCLDY    46  37  71 S13       29.67R
LINCOLN        MOCLDY    44  34  67 S5        29.68R
FALLS CITY     CLEAR     39  34  82 SE8       29.70R WCI  33
LAMONI         CLEAR     41  35  79 SE13      29.73F WCI  34
DES MOINES     MOCLDY    43  35  73 SE15      29.74S

$$





USA.gov is the U.S. government's official web portal to all federal, state and local government web resources and services.